This is the latest recevied weather packets stored in our database for station/object KD9DOE. If no packets are shown the sender has not sent any weather packets the latest 10 day(s).
| Time | Temp. | Humidity | Pressure | Rain* | Wind** | Luminosity | Snow |
|---|---|---|---|---|---|---|---|
| 1777935815 | 25.56° C | 29% | 996.4 hPa | 0 mm | - | 148 W/m² | - |
| 1777935513 | 25.56° C | 28% | 996.7 hPa | 0 mm | - | 191 W/m² | - |
| 1777935209 | 25.56° C | 29% | 996.5 hPa | 0 mm | - | 150 W/m² | - |
| 1777934907 | 26.11° C | 28% | 996.5 hPa | 0 mm | - | 155 W/m² | - |
| 1777934604 | 26.11° C | 28% | 996.5 hPa | 0 mm | - | 228 W/m² | - |
| 1777934300 | 26.11° C | 29% | 996.4 hPa | 0 mm | - | 249 W/m² | - |
| 1777933996 | 26.67° C | 28% | 996.3 hPa | 0 mm | - | 237 W/m² | - |
| 1777933693 | 26.11° C | 28% | 996.3 hPa | 0 mm | - | 217 W/m² | - |
| 1777933389 | 26.67° C | 26% | 996.2 hPa | 0 mm | - | 97 W/m² | - |
| 1777933088 | 26.11° C | 26% | 996 hPa | 0 mm | - | 110 W/m² | - |
| 1777932784 | 26.11° C | 25% | 995.9 hPa | 0 mm | - | 113 W/m² | - |
| 1777932481 | 26.11° C | 26% | 996 hPa | 0 mm | - | 85 W/m² | - |
| 1777932178 | 26.11° C | 26% | 995.8 hPa | 0 mm | - | 122 W/m² | - |
| 1777931876 | 26.11° C | 26% | 996 hPa | 0 mm | - | 97 W/m² | - |
| 1777931572 | 26.67° C | 26% | 996 hPa | 0 mm | - | 108 W/m² | - |
| 1777931268 | 26.67° C | 25% | 995.9 hPa | 0 mm | - | 190 W/m² | - |
| 1777930964 | 26.67° C | 26% | 996.2 hPa | 0 mm | - | 176 W/m² | - |
| 1777930661 | 26.11° C | 27% | 996.1 hPa | 0 mm | - | 320 W/m² | - |
| 1777930357 | 26.11° C | 26% | 996.1 hPa | 0 mm | - | 179 W/m² | - |
| 1777930055 | 26.11° C | 27% | 996.2 hPa | 0 mm | - | 141 W/m² | - |
| 1777929751 | 26.11° C | 25% | 996.1 hPa | 0 mm | - | 406 W/m² | - |
| 1777929449 | 26.11° C | 25% | 996.2 hPa | 0 mm | - | 154 W/m² | - |
| 1777929145 | 26.11° C | 25% | 996.3 hPa | 0 mm | - | 143 W/m² | - |
| 1777928843 | 26.11° C | 26% | 996.4 hPa | 0 mm | - | 151 W/m² | - |
| 1777928539 | 25.56° C | 27% | 996.3 hPa | 0 mm | - | 229 W/m² | - |
* Rain latest hour (hover to see other rain measurements)
** Current wind speed in m/s (hover to see current wind gust speed)